カタログに戻る

FENGYUN 1C DEB

運用中SSO
NORAD 37044·DEBRIS·🇨🇳 China

打ち上げ May 10, 1999 から Taiyuan Satellite Launch Center

Loading…

次のパス (今後24時間)

TLE

経年Source: Space-Track

元期: Sep 8, 2026, 11:35 UTC

1 37044U 99025EEC 26251.48306870  .00004421  00000-0  19270-2 0  9997
2 37044  98.9649 346.3662 0499804 165.2976 196.3337 13.73555489875580

AllMySatでFENGYUN 1C DEBをリアルタイム追跡

Download on the App Store